(165032) = 2000 DL54 = 2002 RC200

Discovered at Socorro on 2000-02-29 by LINEAR.

Orbit

Orbit type: Main Belt

Note: WebGL enabled browser required.

epoch2024-03-31.0
epoch JD2460400.5
perihelion date2023-04-07.80628
perihelion JD2460042.30628
argument of perihelion (°)357.86417
ascending node (°)165.37671
inclination (°)5.20677
eccentricity0.0916940
perihelion distance (AU)2.5176417
Tisserand w.r.t. Jupiter3.3
ΔV w.r.t. Earth (km/sec)10.1
semimajor axis (AU)2.7717991
mean anomaly (°)76.50313
mean daily motion (°/day)0.21358030
aphelion distance (AU)3.026
period (years)4.61
P-vector [x]-0.95756432
P-vector [y]0.26576348
P-vector [z]0.11153625
Q-vector [x]-0.28730759
Q-vector [y]-0.91092512
Q-vector [z]-0.29609082
absolute magnitude15.9
phase slope0.15
uncertainty0
referenceMPEC 2024-C107
observations used725
oppositions16
arc length (days)8473
first opposition used2000
last opposition used2023
residual rms (arc-secs)0.71
perturbers coarse indicatorM-v
perturbers precise indicator003Ek
first observation date used2000-01-27.0
last observation date used2023-04-09.0
computer nameMPCLINUX
JD of orbit computation2456877.730290
perihelion JD uncertainty (days)1.1613E-04
argument of perihelion uncertainty (°)4.6883E-05
ascending node uncertainty (°)3.8534E-05
inclination uncertainty (°)5.4948E-06
eccentricity uncertainty 4.9051E-08
perihelion distance uncertainty (AU)1.3462E-07
Minimum Orbit Intersection Distances (in AU)
for orbit epoch: 2460200.5, reference: E2024-CA7
Mercury2.1314
Venus1.80054
Earth1.5243
Mars0.8559
Jupiter1.94392
Saturn6.30037
Uranus15.9284
Neptune26.8652

Observations

730 total observations over interval: 2000 01 27.49379 – 2023 04 09.527410
These data are available for download (format description).

Date (UT) J2000 RA J2000 Dec Magn Location Ref
2000 01 27.49379 11 08 01.53 +03 34 39.1 19.3 V 691 – Steward Observatory, Kitt Peak-Spacewatch MPS 12270
2000 01 27.51487 11 08 01.17 +03 34 43.4 19.5 V 691 – Steward Observatory, Kitt Peak-Spacewatch MPS 12270
2000 01 27.53597 11 08 00.84 +03 34 48.1 19.1 V 691 – Steward Observatory, Kitt Peak-Spacewatch MPS 12270
2000 02 02.50154 11 05 59.75 +03 57 35.8 19.1 V 691 – Steward Observatory, Kitt Peak-Spacewatch MPS 16888
2000 02 02.51925 11 05 59.27 +03 57 40.4 19.1 V 691 – Steward Observatory, Kitt Peak-Spacewatch MPS 16888
2000 02 02.53692 11 05 58.84 +03 57 44.9 19.2 V 691 – Steward Observatory, Kitt Peak-Spacewatch MPS 16888
2000 02 05.48342 11 04 39.88 +04 11 25.8 19.0 V 691 – Steward Observatory, Kitt Peak-Spacewatch MPS 16888
2000 02 05.50515 11 04 39.22 +04 11 32.0 19.4 V 691 – Steward Observatory, Kitt Peak-Spacewatch MPS 16888
2000 02 05.52771 11 04 38.53 +04 11 38.4 19.5 V 691 – Steward Observatory, Kitt Peak-Spacewatch MPS 16888
2000 02 29.30809 10 48 31.21 +06 44 11.6 18.9   704 – Lincoln Laboratory ETS, New Mexico MPS 11229
2000 02 29.32150 10 48 30.54 +06 44 17.2 18.6   704 – Lincoln Laboratory ETS, New Mexico MPS 11229
2000 02 29.33489 10 48 29.92 +06 44 23.3 19.2   704 – Lincoln Laboratory ETS, New Mexico MPS 11229
2000 02 29.34828 10 48 29.22 +06 44 29.3 19.0   704 – Lincoln Laboratory ETS, New Mexico MPS 11229
2000 03 03.25941 10 46 10.93 +07 05 44.0 17.2   704 – Lincoln Laboratory ETS, New Mexico MPS 11229
2000 03 03.27422 10 46 10.23 +07 05 50.1 17.5   704 – Lincoln Laboratory ETS, New Mexico MPS 11229
2000 03 03.30066 10 46 08.86 +07 06 01.4 17.5   704 – Lincoln Laboratory ETS, New Mexico MPS 11229
2000 03 03.31387 10 46 08.22 +07 06 07.2 17.4   704 – Lincoln Laboratory ETS, New Mexico MPS 11229
2000 03 05.17981 10 44 40.15 +07 19 41.6 19.5   704 – Lincoln Laboratory ETS, New Mexico MPS 11229
2000 03 05.19306 10 44 39.49 +07 19 48.2 19.5   704 – Lincoln Laboratory ETS, New Mexico MPS 11229
2000 03 05.20631 10 44 38.82 +07 19 52.9 19.3   704 – Lincoln Laboratory ETS, New Mexico MPS 11229
2000 03 05.21954 10 44 38.07 +07 19 58.3 19.6   704 – Lincoln Laboratory ETS, New Mexico MPS 11229
2000 03 09.29622 10 41 28.56 +07 49 13.2 19.0   704 – Lincoln Laboratory ETS, New Mexico MPS 11229
2000 03 09.29657 10 41 28.57 +07 49 14.1 18.7   704 – Lincoln Laboratory ETS, New Mexico MPS 11229
2000 03 09.30940 10 41 27.95 +07 49 20.1 19.5   704 – Lincoln Laboratory ETS, New Mexico MPS 11229
2000 03 09.30975 10 41 27.95 +07 49 20.3 19.2   704 – Lincoln Laboratory ETS, New Mexico MPS 11229
2000 03 09.32261 10 41 27.32 +07 49 25.1 19.2   704 – Lincoln Laboratory ETS, New Mexico MPS 11229
2000 03 09.32297 10 41 27.31 +07 49 26.8 18.9   704 – Lincoln Laboratory ETS, New Mexico MPS 11229
2000 03 09.33582 10 41 26.71 +07 49 31.4 19.2   704 – Lincoln Laboratory ETS, New Mexico MPS 11229
2000 03 09.33617 10 41 26.67 +07 49 31.4 18.9   704 – Lincoln Laboratory ETS, New Mexico MPS 11229
2000 03 09.34908 10 41 26.10 +07 49 36.6 19.1   704 – Lincoln Laboratory ETS, New Mexico MPS 11229
2000 03 09.34943 10 41 26.06 +07 49 36.9 19.0   704 – Lincoln Laboratory ETS, New Mexico MPS 11229
2000 03 11.18448 10 40 03.72 +08 02 28.2 18.9   704 – Lincoln Laboratory ETS, New Mexico MPS 11229
2000 03 11.19696 10 40 03.14 +08 02 33.9 19.2   704 – Lincoln Laboratory ETS, New Mexico MPS 11229
2000 03 11.20945 10 40 02.55 +08 02 39.0 18.9   704 – Lincoln Laboratory ETS, New Mexico MPS 11229
2000 03 11.22279 10 40 01.89 +08 02 44.5 18.5   704 – Lincoln Laboratory ETS, New Mexico MPS 11229
2000 03 11.23685 10 40 01.31 +08 02 50.4 18.8   704 – Lincoln Laboratory ETS, New Mexico MPS 11229
2000 03 15.23733 10 37 09.32 +08 29 54.9 19.6 V 691 – Steward Observatory, Kitt Peak-Spacewatch MPS 11229
2000 03 15.25899 10 37 08.39 +08 30 03.4 19.5 V 691 – Steward Observatory, Kitt Peak-Spacewatch MPS 11229
2000 03 15.29957 10 37 06.62 +08 30 19.5 19.6 V 691 – Steward Observatory, Kitt Peak-Spacewatch MPS 11229
2000 04 03.19764 10 27 29.65 +10 10 49.1 19.3 R 699 – Lowell Observatory-LONEOS MPS 12270
2000 04 03.21209 10 27 29.25 +10 10 52.1   699 – Lowell Observatory-LONEOS MPS 12270
2000 04 03.22649 10 27 29.02 +10 10 54.6   699 – Lowell Observatory-LONEOS MPS 12270
2000 04 03.24087 10 27 28.77 +10 10 58.9   699 – Lowell Observatory-LONEOS MPS 12270
2002 09 13.22933 00 01 30.15 -01 26 04.8 20.4   644 – Palomar Mountain/NEAT MPS 61824
2002 09 13.31482 00 01 26.24 -01 26 37.9 20.2   644 – Palomar Mountain/NEAT MPS 61824
2002 09 13.38465 00 01 23.03 -01 27 04.8 19.9   644 – Palomar Mountain/NEAT MPS 61824
2002 09 15.48703 23 59 48.70 -01 40 45.2 20.1   644 – Palomar Mountain/NEAT MPS 61824
2002 09 15.49770 23 59 48.21 -01 40 49.0 19.9   644 – Palomar Mountain/NEAT MPS 61824
2002 09 15.50843 23 59 47.72 -01 40 53.7 20.4   644 – Palomar Mountain/NEAT MPS 61824
2005 03 16.45701 14 15 47.26 -08 53 07.8 18.9 R G96 – Mt. Lemmon Survey MPS 134715
2005 03 16.46466 14 15 47.14 -08 53 06.1 18.3 R G96 – Mt. Lemmon Survey MPS 134715
2005 03 16.47229 14 15 46.96 -08 53 03.7 19.0 R G96 – Mt. Lemmon Survey MPS 134715
2005 03 16.48001 14 15 46.81 -08 53 01.3 18.5 R G96 – Mt. Lemmon Survey MPS 134715
2005 04 02.35019 14 07 48.87 -07 21 07.1 19.7 V 691 – Steward Observatory, Kitt Peak-Spacewatch MPS 134715
2005 04 02.38792 14 07 47.34 -07 20 53.3 19.5 V 691 – Steward Observatory, Kitt Peak-Spacewatch MPS 134715
2005 04 02.41319 14 07 46.30 -07 20 44.1 19.7 V 691 – Steward Observatory, Kitt Peak-Spacewatch MPS 134715
2005 04 05.34971 14 05 48.28 -07 02 30.1 19.1 R 703 – Catalina Sky Survey MPS 275941
2005 04 05.35623 14 05 47.95 -07 02 26.1 18.8 R 703 – Catalina Sky Survey MPS 275941
2005 04 05.36278 14 05 47.63 -07 02 23.7 20.4 R 703 – Catalina Sky Survey MPS 275941
2005 04 05.36934 14 05 47.45 -07 02 19.0 20.9 R 703 – Catalina Sky Survey MPS 275941
2005 04 10.27903 14 02 14.21 -06 31 11.0 19.4 V 691 – Steward Observatory, Kitt Peak-Spacewatch MPS 134715
2005 04 10.29862 14 02 13.25 -06 31 03.2 20.5 V 691 – Steward Observatory, Kitt Peak-Spacewatch MPS 134715
2005 04 10.31662 14 02 12.42 -06 30 57.1 19.3 V 691 – Steward Observatory, Kitt Peak-Spacewatch MPS 134715
2005 04 18.25288 13 56 01.55 -05 40 51.0 19.8 V 691 – Steward Observatory, Kitt Peak-Spacewatch MPS 134715
2005 04 18.26319 13 56 01.06 -05 40 48.3 19.3 R 703 – Catalina Sky Survey MPS 134715
2005 04 18.26958 13 56 00.56 -05 40 44.9 19.1 R 703 – Catalina Sky Survey MPS 134715
2005 04 18.27071 13 56 00.66 -05 40 44.4 19.4 V 691 – Steward Observatory, Kitt Peak-Spacewatch MPS 134715
2005 04 18.27597 13 56 00.41 -05 40 42.8 19.2 R 703 – Catalina Sky Survey MPS 134715
2005 04 18.28237 13 56 00.05 -05 40 38.6 19.2 R 703 – Catalina Sky Survey MPS 134715
2005 04 18.28838 13 55 59.78 -05 40 38.4 19.2 V 691 – Steward Observatory, Kitt Peak-Spacewatch MPS 134715
2005 05 11.21534 13 39 24.52 -03 45 01.7 19.6 R 699 – Lowell Observatory-LONEOS MPS 134715
2005 05 11.23450 13 39 23.68 -03 44 58.6   699 – Lowell Observatory-LONEOS MPS 134715
2005 05 11.25364 13 39 22.98 -03 44 56.4   699 – Lowell Observatory-LONEOS MPS 134715
2005 05 11.27274 13 39 22.27 -03 44 49.3   699 – Lowell Observatory-LONEOS MPS 134715
2005 05 12.22891 13 38 49.96 -03 41 36.6 19.9 V 691 – Steward Observatory, Kitt Peak-Spacewatch MPS 134715
2005 05 12.24889 13 38 49.25 -03 41 32.7 19.9 V 691 – Steward Observatory, Kitt Peak-Spacewatch MPS 134715
2005 05 12.26600 13 38 48.66 -03 41 29.0 19.9 V 691 – Steward Observatory, Kitt Peak-Spacewatch MPS 134715
2005 05 13.24652 13 38 16.47 -03 38 20.7 18.9 R 703 – Catalina Sky Survey MPS 134715
2005 05 13.25444 13 38 16.32 -03 38 18.7 19.3 R 703 – Catalina Sky Survey MPS 134715
2005 05 13.26241 13 38 16.11 -03 38 17.4 19.6 R 703 – Catalina Sky Survey MPS 134715
2005 05 13.27038 13 38 15.69 -03 38 15.9 19.6 R 703 – Catalina Sky Survey MPS 134715
2006 06 22.38073 21 04 34.24 -11 27 21.2   691 – Steward Observatory, Kitt Peak-Spacewatch MPS 173817
2006 06 22.39801 21 04 33.94 -11 27 22.2   691 – Steward Observatory, Kitt Peak-Spacewatch MPS 173817
2006 06 22.41531 21 04 33.56 -11 27 23.0   691 – Steward Observatory, Kitt Peak-Spacewatch MPS 173817
2007 10 09.79632 02 09 29.04 +07 36 42.5 19.2 C D35 – Lulin Observatory MPS 220158
